Fryeburg, ME

10:24 PM EDT on October 19, 2017 (GMT -0400)
Eastern Slopes Regional

Weather History for KIZG - October, 2012

Change the Weather History Date:

Monday, October 22, 2012

  Actual Average Record
Temperature  
Mean Temperature 50 °F -  
Max Temperature 59 °F 53 °F 82 °F (2007)
Min Temperature 42 °F 29 °F 19 °F (2002)
Degree Days  
Heating Degree Days 14    
Moisture  
Dew Point 37 °F    
Average Humidity 58    
Maximum Humidity 82    
Minimum Humidity 46    
Precipitation  
Precipitation 0.00 in - - ()
Sea Level Pressure  
Sea Level Pressure 29.88 in    
Wind  
Wind Speed 9 mph (West)    
Max Wind Speed 16 mph    
Max Gust Speed 28 mph    
Visibility 10 miles    
Events      
Averages and records for this station are not official NWS values.
T = Trace of Precipitation, MM = Missing Value Source: NWS Daily Summary

Daily Weather History Graph

Daily Weather History Graph

Search for Another Location

Airport or City:

Trip Planner

Search our weather history database for the weather conditions in past years. The results will help you decide how hot, cold, wet, or windy it might be!

Date:

Astronomy

Oct. 22, 2012 Rise Set
Actual Time 7:07 AM EDT 5:47 PM EDT
Civil Twilight 6:38 AM EDT 6:17 PM EDT
Nautical Twilight 6:04 AM EDT 6:50 PM EDT
Astronomical Twilight 5:31 AM EDT 7:24 PM EDT
Moon 2:06 PM EDT (10/22) No Moon Set
Length of Visible Light 11h 38m
Length of Day
10h 40m
First Quarter, 56% of the Moon is Illuminated
Oct 22
First Quarter
Oct 29
Full
Nov 6
Last Quarter
Nov 13
New
Nov 20
First Quarter

Hourly Weather History & Observations

Time (EDT) Temp. Windchill Dew Point Humidity Pressure Visibility Wind Dir Wind Speed Gust Speed Precip Events Conditions
12:54 AM 52.0 °F - 37.9 °F 59% 29.81 in 10.0 mi WNW 11.5 mph 21.9 mph N/A   Clear
1:54 AM 52.0 °F - 37.0 °F 57% 29.81 in 10.0 mi West 10.4 mph 19.6 mph N/A   Clear
2:54 AM 52.0 °F - 37.0 °F 57% 29.83 in 10.0 mi WNW 5.8 mph - N/A   Overcast
3:54 AM 51.1 °F - 37.0 °F 59% 29.82 in 10.0 mi West 11.5 mph 19.6 mph N/A   Partly Cloudy
4:54 AM 50.0 °F - 35.1 °F 57% 29.83 in 10.0 mi West 9.2 mph 21.9 mph N/A   Clear
5:54 AM 50.0 °F - 36.0 °F 59% 29.84 in 10.0 mi West 9.2 mph 24.2 mph N/A   Clear
6:54 AM 48.9 °F - 36.0 °F 61% 29.84 in 10.0 mi West 8.1 mph 18.4 mph N/A   Partly Cloudy
7:54 AM 50.0 °F - 36.0 °F 59% 29.85 in 10.0 mi West 10.4 mph 21.9 mph N/A   Clear
8:54 AM 53.1 °F - 37.0 °F 55% 29.85 in 10.0 mi NW 9.2 mph 18.4 mph N/A   Clear
9:54 AM 55.9 °F - 37.9 °F 51% 29.86 in 10.0 mi WNW 10.4 mph 19.6 mph N/A   Clear
10:54 AM 57.0 °F - 37.0 °F 47% 29.88 in 10.0 mi WNW 16.1 mph 25.3 mph N/A   Clear
11:54 AM 57.9 °F - 37.0 °F 46% 29.88 in 10.0 mi West 9.2 mph 18.4 mph N/A   Mostly Cloudy
12:54 PM 57.9 °F - 37.0 °F 46% 29.88 in 10.0 mi West 10.4 mph 27.6 mph N/A   Mostly Cloudy
1:54 PM 59.0 °F - 37.9 °F 46% 29.88 in 10.0 mi Variable 6.9 mph 21.9 mph N/A   Scattered Clouds
2:54 PM 57.0 °F - 37.0 °F 47% 29.90 in 10.0 mi WNW 13.8 mph 21.9 mph N/A   Mostly Cloudy
3:54 PM 55.9 °F - 37.0 °F 49% 29.89 in 10.0 mi West 8.1 mph 20.7 mph N/A   Clear
4:54 PM 55.0 °F - 37.0 °F 51% 29.89 in 10.0 mi NW 4.6 mph - N/A   Clear
5:54 PM 50.0 °F - 37.9 °F 63% 29.91 in 10.0 mi Calm Calm - N/A   Clear
6:54 PM 46.9 °F - 37.9 °F 71% 29.92 in 10.0 mi North 3.5 mph - N/A   Clear
7:54 PM 42.1 °F - 37.0 °F 82% 29.93 in 10.0 mi Calm Calm - 0.00 in   Clear
9:54 PM 48.0 °F - 37.0 °F 66% 29.93 in 10.0 mi South 8.1 mph - N/A   Clear
10:54 PM 44.1 °F 40.8 °F 37.0 °F 76% 29.94 in 10.0 mi South 5.8 mph - N/A   Partly Cloudy
11:54 PM 44.1 °F 42.5 °F 37.0 °F 76% 29.96 in 10.0 mi South 3.5 mph - N/A   Clear